User: anonymous   Login
Location: DaltonSkyGazer Observatory
(42.4858°N, 73.1565°W)
Time: 12:08:01
(UTC-04:00)
Language:

Helios 1B - Orbit

View from above orbital plane
View from above orbital plane
View from above satellite
View from above satellite

Ground track
Ground track

The orbit data is extracted from the following two-line orbital elements,

1 25977U 99064A   15244.19256192  .00000538  00000-0  75393-4 0  9996
2 25977  98.1404 333.8380 0000692 159.2457 200.8783 14.81621573846998
Epoch (UTC): 01 September 2015 04:37:17
Eccentricity: 0.0000692
inclination: 98.1404°
perigee height: 624 km
apogee height: 625 km
right ascension of ascending node: 333.8380°
argument of perigee: 159.2457°
revolutions per day: 14.81621573
mean anomaly at epoch: 200.8783°
orbit number at epoch: 84699

The dashed part of the orbit path shows where the satellite is in the earth's shadow,  

DLR